Location: *
(51.1248°S, 108.4023°W)
Time: 18:46:05
(UTC+00:00)

Cosmos 1937 Rocket - Pass Details

Date: 25 October 2021
Orbit: 746 x 781 km, 74.0° (Epoch: 02 December)

Event Time Altitude Azimuth Distance (km) Brightness Sun altitude
Exits shadow 10:38:21 - 343° (NNW) 2,629 5.8 -10.7°
Reaches altitude 10° 10:39:05 10° 344° (NNW) 2,347 5.6 -10.6°
Maximum altitude 10:44:25 77° 69° (ENE) 818 3.7 -9.9°
Drops below altitude 10° 10:49:48 10° 153° (SSE) 2,364 7.1 -9.2°
Sets 10:52:12 0° 154° (SSE) 3,294 7.9 -8.9°
